Location: Haulchin
(50.3172°N, 3.4360°E)
Time: 19:36:18
(UTC+00:00)

Cosmos 2333 Rocket - Pass Details

Date: 09 August 2024
Orbit: 838 x 863 km, 70.8° (Epoch: 09 September)

Event Time Altitude Azimuth Distance (km) Brightness Sun altitude
Exits shadow 23:39:25 22° 107° (ESE) 1,797 3.7 -24.1°
Maximum altitude 23:39:45 22° 101° (ESE) 1,792 3.7 -24.2°
Drops below altitude 10° 23:44:03 10° 53° (NE) 2,509 5.1 -24.2°
Sets 23:47:02 0° 39° (NE) 3,453 6.1 -24.2°
